"Sample Date","Sample Time","Sample Value","Units","Flow Rate","Laser Status","Micron Size 0","Counts/Channel 0","Micron Size 1","Counts/Channel 1","Micron Size 2","Counts/Channel 2","Micron Size 3","Counts/Channel 3","Micron Size 4","Counts/Channel 4","Micron Size 5","Counts/Channel 5","Micron Size 6","Counts/Channel 6","Micron Size 7","Counts/Channel 7","Micron Size 8","Counts/Channel 8","Micron Size 9","Counts/Channel 9","Micron Size 10","Counts/Channel 10","Micron Size 11","Counts/Channel 11","Micron Size 12","Counts/Channel 12","Micron Size 13","Counts/Channel 13","Micron Size 14","Counts/Channel 14","Micron Size 15","Counts/Channel 15","Micron Size 16","Counts/Channel 16","Micron Size 17","Counts/Channel 17","Micron Size 18","Counts/Channel 18","Micron Size 19","Counts/Channel 19","Micron Size 20","Counts/Channel 20","Micron Size 21","Counts/Channel 21","Micron Size 22","Counts/Channel 22","Micron Size 23","Counts/Channel 23","Micron Size 24","Counts/Channel 24","Micron Size 25","Counts/Channel 25","Micron Size 26","Counts/Channel 26","Micron Size 27","Counts/Channel 27","Micron Size 28","Counts/Channel 28","Micron Size 29","Counts/Channel 29","Micron Size 30","Counts/Channel 30","Micron Size 31","Counts/Channel 31"
"05/02/07","21:00:03",36067.000,"cc",28290.320,1,0.100,28691.000,0.200,6496.000,0.300,784.000,0.500,80.000,1.000,16.000,5.000,0
"05/02/07","21:00:09",35720.000,"cc",28400.078,1,0.100,28384.000,0.200,6460.000,0.300,778.000,0.500,80.000,1.000,18.000,5.000,0
"05/02/07","21:00:15",35806.000,"cc",28313.367,1,0.100,28307.000,0.200,6664.000,0.300,758.000,0.500,67.000,1.000,10.000,5.000,0
"05/02/07","21:00:21",35708.000,"cc",28278.197,1,0.100,28235.000,0.200,6592.000,0.300,792.000,0.500,73.000,1.000,16.000,5.000,0
"05/02/07","21:00:27",35869.000,"cc",28306.738,1,0.100,28430.000,0.200,6591.000,0.300,754.000,0.500,81.000,1.000,13.000,5.000,0
"05/02/07","21:00:33",35753.000,"cc",28349.535,1,0.100,28314.000,0.200,6553.000,0.300,796.000,0.500,77.000,1.000,13.000,5.000,0
"05/02/07","21:00:39",35696.000,"cc",28329.234,1,0.100,28268.000,0.200,6564.000,0.300,783.000,0.500,71.000,1.000,10.000,5.000,0
"05/02/07","21:00:45",36203.000,"cc",28313.025,1,0.100,28778.000,0.200,6590.000,0.300,751.000,0.500,66.000,1.000,18.000,5.000,0
"05/02/07","21:00:51",35658.000,"cc",28293.481,1,0.100,28261.000,0.200,6571.000,0.300,760.000,0.500,56.000,1.000,10.000,5.000,0
"05/02/07","21:00:57",35945.000,"cc",28272.928,1,0.100,28511.000,0.200,6586.000,0.300,761.000,0.500,74.000,1.000,13.000,5.000,0
"05/02/07","21:01:03",35689.000,"cc",28318.660,1,0.100,28286.000,0.200,6563.000,0.300,758.000,0.500,67.000,1.000,15.000,5.000,0
"05/02/07","21:01:09",35611.000,"cc",28411.543,1,0.100,28287.000,0.200,6490.000,0.300,758.000,0.500,65.000,1.000,11.000,5.000,0
"05/02/07","21:01:15",35764.000,"cc",28269.145,1,0.100,28405.000,0.200,6498.000,0.300,785.000,0.500,69.000,1.000,7.000,5.000,0
"05/02/07","21:01:21",36045.000,"cc",28312.406,1,0.100,28728.000,0.200,6449.000,0.300,765.000,0.500,85.000,1.000,18.000,5.000,0
"05/02/07","21:01:27",35348.000,"cc",28331.441,1,0.100,28116.000,0.200,6421.000,0.300,728.000,0.500,74.000,1.000,9.000,5.000,0
"05/02/07","21:01:33",35864.000,"cc",28301.268,1,0.100,28503.000,0.200,6479.000,0.300,803.000,0.500,60.000,1.000,19.000,5.000,0
"05/02/07","21:01:39",35905.000,"cc",28317.588,1,0.100,28404.000,0.200,6541.000,0.300,869.000,0.500,79.000,1.000,12.000,5.000,0
"05/02/07","21:01:45",35874.000,"cc",28301.109,1,0.100,28370.000,0.200,6651.000,0.300,768.000,0.500,73.000,1.000,12.000,5.000,0
"05/02/07","21:01:51",35959.000,"cc",28343.641,1,0.100,28714.000,0.200,6400.000,0.300,758.000,0.500,70.000,1.000,17.000,5.000,0
"05/02/07","21:01:57",35887.000,"cc",28278.799,1,0.100,28543.000,0.200,6523.000,0.300,745.000,0.500,64.000,1.000,12.000,5.000,0
"05/02/07","21:02:03",35491.000,"cc",28332.188,1,0.100,28103.000,0.200,6562.000,0.300,766.000,0.500,45.000,1.000,15.000,5.000,0
"05/02/07","21:02:09",35621.000,"cc",28279.098,1,0.100,28332.000,0.200,6517.000,0.300,704.000,0.500,54.000,1.000,14.000,5.000,0
"05/02/07","21:02:15",35946.000,"cc",28331.492,1,0.100,28460.000,0.200,6653.000,0.300,756.000,0.500,58.000,1.000,19.000,5.000,0
"05/02/07","21:02:21",35508.000,"cc",28331.273,1,0.100,27983.000,0.200,6668.000,0.300,789.000,0.500,54.000,1.000,14.000,5.000,0
"05/02/07","21:02:27",35717.000,"cc",28345.914,1,0.100,28329.000,0.200,6506.000,0.300,807.000,0.500,62.000,1.000,13.000,5.000,0
"05/02/07","21:02:33",35666.000,"cc",28317.773,1,0.100,28295.000,0.200,6545.000,0.300,750.000,0.500,65.000,1.000,11.000,5.000,0
"05/02/07","21:02:39",35454.000,"cc",28339.850,1,0.100,28158.000,0.200,6471.000,0.300,748.000,0.500,64.000,1.000,13.000,5.000,0
"05/02/07","21:02:45",36066.000,"cc",28217.631,1,0.100,28628.000,0.200,6629.000,0.300,738.000,0.500,54.000,1.000,17.000,5.000,0
"05/02/07","21:02:51",35843.000,"cc",28273.086,1,0.100,28445.000,0.200,6569.000,0.300,764.000,0.500,57.000,1.000,8.000,5.000,0
"05/02/07","21:02:57",35809.000,"cc",28365.254,1,0.100,28335.000,0.200,6623.000,0.300,767.000,0.500,73.000,1.000,11.000,5.000,0
"05/02/07","21:03:03",35404.000,"cc",28379.565,1,0.100,28092.000,0.200,6473.000,0.300,770.000,0.500,58.000,1.000,11.000,5.000,0
"05/02/07","21:03:09",35479.000,"cc",28270.449,1,0.100,28171.000,0.200,6473.000,0.300,774.000,0.500,52.000,1.000,9.000,5.000,0
"05/02/07","21:03:15",35427.000,"cc",28338.295,1,0.100,28042.000,0.200,6600.000,0.300,732.000,0.500,46.000,1.000,7.000,5.000,0
"05/02/07","21:03:21",35803.000,"cc",28306.318,1,0.100,28324.000,0.200,6633.000,0.300,776.000,0.500,60.000,1.000,10.000,5.000,0
"05/02/07","21:03:27",35877.000,"cc",28303.385,1,0.100,28454.000,0.200,6656.000,0.300,704.000,0.500,52.000,1.000,11.000,5.000,0
"05/02/07","21:03:33",35417.000,"cc",28341.523,1,0.100,28035.000,0.200,6559.000,0.300,755.000,0.500,62.000,1.000,6.000,5.000,0
"05/02/07","21:03:39",35661.000,"cc",28309.346,1,0.100,28303.000,0.200,6546.000,0.300,754.000,0.500,47.000,1.000,11.000,5.000,0
"05/02/07","21:03:45",35363.000,"cc",28363.590,1,0.100,28064.000,0.200,6428.000,0.300,801.000,0.500,53.000,1.000,17.000,5.000,0
"05/02/07","21:03:51",35276.000,"cc",28324.598,1,0.100,27993.000,0.200,6478.000,0.300,746.000,0.500,50.000,1.000,9.000,5.000,0
"05/02/07","21:03:57",34933.000,"cc",28321.920,1,0.100,27655.000,0.200,6456.000,0.300,763.000,0.500,50.000,1.000,9.000,5.000,0
"05/02/07","21:04:03",35200.000,"cc",28308.824,1,0.100,27882.000,0.200,6507.000,0.300,751.000,0.500,53.000,1.000,7.000,5.000,0
"05/02/07","21:04:09",35167.000,"cc",28293.979,1,0.100,27950.000,0.200,6412.000,0.300,733.000,0.500,64.000,1.000,8.000,5.000,0
"05/02/07","21:04:15",34991.000,"cc",28307.682,1,0.100,27853.000,0.200,6286.000,0.300,778.000,0.500,62.000,1.000,12.000,5.000,0
"05/02/07","21:04:21",35959.000,"cc",28288.033,1,0.100,28461.000,0.200,6642.000,0.300,792.000,0.500,48.000,1.000,16.000,5.000,0
"05/02/07","21:04:27",36365.000,"cc",28325.785,1,0.100,28926.000,0.200,6578.000,0.300,791.000,0.500,58.000,1.000,12.000,5.000,0
"05/02/07","21:04:33",36280.000,"cc",28329.080,1,0.100,28820.000,0.200,6627.000,0.300,760.000,0.500,59.000,1.000,14.000,5.000,0
"05/02/07","21:04:39",36421.000,"cc",28310.008,1,0.100,28812.000,0.200,6775.000,0.300,760.000,0.500,64.000,1.000,10.000,5.000,0
"05/02/07","21:04:45",36075.000,"cc",28296.147,1,0.100,28522.000,0.200,6713.000,0.300,758.000,0.500,66.000,1.000,16.000,5.000,0
"05/02/07","21:04:51",36162.000,"cc",28298.754,1,0.100,28717.000,0.200,6581.000,0.300,779.000,0.500,71.000,1.000,14.000,5.000,0
"05/02/07","21:04:57",36564.000,"cc",28340.398,1,0.100,29025.000,0.200,6689.000,0.300,799.000,0.500,41.000,1.000,10.000,5.000,0
"05/02/07","21:05:03",36542.000,"cc",28317.945,1,0.100,29037.000,0.200,6646.000,0.300,787.000,0.500,64.000,1.000,8.000,5.000,0
"05/02/07","21:05:09",36487.000,"cc",28283.906,1,0.100,29078.000,0.200,6572.000,0.300,767.000,0.500,59.000,1.000,11.000,5.000,0
"05/02/07","21:05:15",36657.000,"cc",28350.801,1,0.100,29022.000,0.200,6776.000,0.300,786.000,0.500,61.000,1.000,12.000,5.000,0
"05/02/07","21:05:21",36956.000,"cc",28333.262,1,0.100,29294.000,0.200,6800.000,0.300,798.000,0.500,54.000,1.000,10.000,5.000,0
"05/02/07","21:05:27",37210.000,"cc",28312.604,1,0.100,29489.000,0.200,6901.000,0.300,752.000,0.500,54.000,1.000,14.000,5.000,0
"05/02/07","21:05:33",37038.000,"cc",28292.725,1,0.100,29332.000,0.200,6825.000,0.300,801.000,0.500,68.000,1.000,12.000,5.000,0
"05/02/07","21:05:39",37329.000,"cc",28372.664,1,0.100,29629.000,0.200,6854.000,0.300,786.000,0.500,50.000,1.000,10.000,5.000,0
"05/02/07","21:05:45",37845.000,"cc",28297.037,1,0.100,30076.000,0.200,6926.000,0.300,783.000,0.500,56.000,1.000,4.000,5.000,0
"05/02/07","21:05:51",37701.000,"cc",28296.416,1,0.100,29871.000,0.200,6902.000,0.300,846.000,0.500,73.000,1.000,9.000,5.000,0
"05/02/07","21:05:57",37516.000,"cc",28271.383,1,0.100,29729.000,0.200,6916.000,0.300,805.000,0.500,54.000,1.000,12.000,5.000,0
"05/02/07","21:06:03",37571.000,"cc",28387.553,1,0.100,29754.000,0.200,6900.000,0.300,846.000,0.500,60.000,1.000,11.000,5.000,0
"05/02/07","21:06:09",37380.000,"cc",28311.650,1,0.100,29586.000,0.200,6962.000,0.300,747.000,0.500,75.000,1.000,10.000,5.000,0
"05/02/07","21:06:15",37862.000,"cc",28386.117,1,0.100,30063.000,0.200,6899.000,0.300,814.000,0.500,79.000,1.000,7.000,5.000,0
"05/02/07","21:06:21",37921.000,"cc",28284.639,1,0.100,30063.000,0.200,6936.000,0.300,848.000,0.500,63.000,1.000,11.000,5.000,0
"05/02/07","21:06:27",37980.000,"cc",28287.035,1,0.100,30164.000,0.200,6866.000,0.300,870.000,0.500,60.000,1.000,20.000,5.000,0
"05/02/07","21:06:33",38468.000,"cc",28332.594,1,0.100,30754.000,0.200,6768.000,0.300,877.000,0.500,53.000,1.000,16.000,5.000,0
"05/02/07","21:06:39",38796.000,"cc",28299.471,1,0.100,30802.000,0.200,7061.000,0.300,851.000,0.500,68.000,1.000,14.000,5.000,0
"05/02/07","21:06:45",39541.000,"cc",28328.940,1,0.100,31474.000,0.200,7113.000,0.300,882.000,0.500,63.000,1.000,9.000,5.000,0
"05/02/07","21:06:51",39418.000,"cc",28301.766,1,0.100,31256.000,0.200,7224.000,0.300,879.000,0.500,48.000,1.000,11.000,5.000,0
"05/02/07","21:06:57",39731.000,"cc",28283.363,1,0.100,31561.000,0.200,7263.000,0.300,850.000,0.500,49.000,1.000,8.000,5.000,0
"05/02/07","21:07:03",40138.000,"cc",28315.232,1,0.100,31910.000,0.200,7276.000,0.300,881.000,0.500,60.000,1.000,11.000,5.000,0
"05/02/07","21:07:09",40350.000,"cc",28385.215,1,0.100,32226.000,0.200,7178.000,0.300,892.000,0.500,46.000,1.000,8.000,5.000,0
"05/02/07","21:07:15",40165.000,"cc",28354.346,1,0.100,32056.000,0.200,7160.000,0.300,878.000,0.500,65.000,1.000,6.000,5.000,0
"05/02/07","21:07:21",40370.000,"cc",28280.594,1,0.100,32157.000,0.200,7325.000,0.300,818.000,0.500,62.000,1.000,8.000,5.000,0
"05/02/07","21:07:27",40386.000,"cc",28277.582,1,0.100,32193.000,0.200,7244.000,0.300,894.000,0.500,48.000,1.000,7.000,5.000,0
"05/02/07","21:07:33",40933.000,"cc",28311.481,1,0.100,32433.000,0.200,7502.000,0.300,912.000,0.500,79.000,1.000,7.000,5.000,0
"05/02/07","21:07:39",41592.000,"cc",28325.541,1,0.100,33175.000,0.200,7485.000,0.300,862.000,0.500,59.000,1.000,11.000,5.000,0
"05/02/07","21:07:45",42070.000,"cc",28292.010,1,0.100,33592.000,0.200,7474.000,0.300,928.000,0.500,66.000,1.000,10.000,5.000,0
"05/02/07","21:07:51",41610.000,"cc",28359.324,1,0.100,32986.000,0.200,7608.000,0.300,944.000,0.500,61.000,1.000,11.000,5.000,0
"05/02/07","21:07:57",42169.000,"cc",28317.611,1,0.100,33663.000,0.200,7548.000,0.300,906.000,0.500,40.000,1.000,12.000,5.000,0
"05/02/07","21:08:03",42577.000,"cc",28272.272,1,0.100,33833.000,0.200,7729.000,0.300,942.000,0.500,68.000,1.000,5.000,5.000,0
"05/02/07","21:08:09",42204.000,"cc",28322.752,1,0.100,33758.000,0.200,7451.000,0.300,938.000,0.500,50.000,1.000,7.000,5.000,0
"05/02/07","21:08:15",42739.000,"cc",28366.211,1,0.100,33898.000,0.200,7789.000,0.300,987.000,0.500,61.000,1.000,4.000,5.000,0
"05/02/07","21:08:21",42416.000,"cc",28339.908,1,0.100,33764.000,0.200,7624.000,0.300,963.000,0.500,59.000,1.000,6.000,5.000,0
"05/02/07","21:08:27",42716.000,"cc",28330.043,1,0.100,33896.000,0.200,7768.000,0.300,1008.000,0.500,39.000,1.000,5.000,5.000,0
"05/02/07","21:08:33",42780.000,"cc",28269.539,1,0.100,34137.000,0.200,7596.000,0.300,981.000,0.500,59.000,1.000,7.000,5.000,0
"05/02/07","21:08:39",42755.000,"cc",28298.291,1,0.100,34099.000,0.200,7647.000,0.300,946.000,0.500,54.000,1.000,9.000,5.000,0
"05/02/07","21:08:45",43164.000,"cc",28300.445,1,0.100,34378.000,0.200,7778.000,0.300,945.000,0.500,58.000,1.000,5.000,5.000,0
"05/02/07","21:08:51",43059.000,"cc",28318.270,1,0.100,34391.000,0.200,7673.000,0.300,937.000,0.500,53.000,1.000,5.000,5.000,0
"05/02/07","21:08:57",43035.000,"cc",28327.672,1,0.100,34286.000,0.200,7756.000,0.300,930.000,0.500,58.000,1.000,5.000,5.000,0
"05/02/07","21:09:03",42964.000,"cc",28288.678,1,0.100,34245.000,0.200,7697.000,0.300,940.000,0.500,67.000,1.000,15.000,5.000,0
"05/02/07","21:09:09",43149.000,"cc",28292.662,1,0.100,34387.000,0.200,7739.000,0.300,963.000,0.500,53.000,1.000,7.000,5.000,0
"05/02/07","21:09:15",43557.000,"cc",28332.147,1,0.100,34670.000,0.200,7899.000,0.300,927.000,0.500,55.000,1.000,6.000,5.000,0
"05/02/07","21:09:21",43369.000,"cc",28294.500,1,0.100,34678.000,0.200,7666.000,0.300,954.000,0.500,67.000,1.000,4.000,5.000,0
"05/02/07","21:09:27",43539.000,"cc",28325.293,1,0.100,34556.000,0.200,7903.000,0.300,1016.000,0.500,55.000,1.000,9.000,5.000,0
"05/02/07","21:09:33",43905.000,"cc",28308.217,1,0.100,35013.000,0.200,7887.000,0.300,943.000,0.500,55.000,1.000,7.000,5.000,0
"05/02/07","21:09:39",43615.000,"cc",28359.029,1,0.100,34675.000,0.200,7909.000,0.300,973.000,0.500,54.000,1.000,4.000,5.000,0
"05/02/07","21:09:45",43412.000,"cc",28304.215,1,0.100,34654.000,0.200,7726.000,0.300,960.000,0.500,59.000,1.000,13.000,5.000,0
"05/02/07","21:09:51",43977.000,"cc",28303.516,1,0.100,35006.000,0.200,7924.000,0.300,989.000,0.500,50.000,1.000,8.000,5.000,0
"05/02/07","21:09:57",43629.000,"cc",28289.773,1,0.100,34613.000,0.200,7997.000,0.300,948.000,0.500,67.000,1.000,4.000,5.000,0
"05/02/07","21:10:03",43812.000,"cc",28323.717,1,0.100,34910.000,0.200,7879.000,0.300,948.000,0.500,68.000,1.000,7.000,5.000,0
"05/02/07","21:10:09",43674.000,"cc",28303.504,1,0.100,34775.000,0.200,7852.000,0.300,995.000,0.500,45.000,1.000,7.000,5.000,0
"05/02/07","21:10:15",42725.000,"cc",28328.875,1,0.100,34201.000,0.200,7551.000,0.300,911.000,0.500,50.000,1.000,12.000,5.000,0
"05/02/07","21:10:21",43443.000,"cc",28362.633,1,0.100,34692.000,0.200,7716.000,0.300,976.000,0.500,50.000,1.000,9.000,5.000,0
"05/02/07","21:10:27",43367.000,"cc",28359.148,1,0.100,34641.000,0.200,7735.000,0.300,933.000,0.500,50.000,1.000,8.000,5.000,0
"05/02/07","21:10:33",42912.000,"cc",28371.758,1,0.100,34171.000,0.200,7701.000,0.300,967.000,0.500,65.000,1.000,8.000,5.000,0
"05/02/07","21:10:39",43109.000,"cc",28273.875,1,0.100,34299.000,0.200,7778.000,0.300,962.000,0.500,57.000,1.000,13.000,5.000,0
"05/02/07","21:10:45",42901.000,"cc",28332.078,1,0.100,34118.000,0.200,7795.000,0.300,936.000,0.500,51.000,1.000,1.000,5.000,0
"05/02/07","21:10:51",43251.000,"cc",28277.920,1,0.100,34428.000,0.200,7759.000,0.300,996.000,0.500,60.000,1.000,8.000,5.000,0
"05/02/07","21:10:57",43220.000,"cc",28296.420,1,0.100,34321.000,0.200,7841.000,0.300,988.000,0.500,56.000,1.000,14.000,5.000,0
"05/02/07","21:11:03",43382.000,"cc",28372.324,1,0.100,34656.000,0.200,7712.000,0.300,955.000,0.500,55.000,1.000,4.000,5.000,0
"05/02/07","21:11:09",43176.000,"cc",28259.441,1,0.100,34342.000,0.200,7826.000,0.300,954.000,0.500,48.000,1.000,6.000,5.000,0
"05/02/07","21:11:15",43195.000,"cc",28294.676,1,0.100,34429.000,0.200,7742.000,0.300,965.000,0.500,52.000,1.000,7.000,5.000,0
"05/02/07","21:11:21",42853.000,"cc",28350.391,1,0.100,34065.000,0.200,7754.000,0.300,983.000,0.500,47.000,1.000,4.000,5.000,0
"05/02/07","21:11:27",42934.000,"cc",28313.438,1,0.100,34301.000,0.200,7632.000,0.300,920.000,0.500,73.000,1.000,8.000,5.000,0
"05/02/07","21:11:33",42771.000,"cc",28263.395,1,0.100,34062.000,0.200,7676.000,0.300,973.000,0.500,55.000,1.000,5.000,5.000,0
"05/02/07","21:11:39",42794.000,"cc",28319.272,1,0.100,34137.000,0.200,7610.000,0.300,986.000,0.500,55.000,1.000,6.000,5.000,0
"05/02/07","21:11:45",42785.000,"cc",28334.754,1,0.100,34053.000,0.200,7708.000,0.300,971.000,0.500,46.000,1.000,7.000,5.000,0
"05/02/07","21:11:51",42242.000,"cc",28350.029,1,0.100,33695.000,0.200,7565.000,0.300,942.000,0.500,35.000,1.000,5.000,5.000,0
"05/02/07","21:11:57",42840.000,"cc",28297.232,1,0.100,34038.000,0.200,7788.000,0.300,962.000,0.500,45.000,1.000,7.000,5.000,0
"05/02/07","21:12:03",42770.000,"cc",28332.857,1,0.100,33860.000,0.200,7903.000,0.300,951.000,0.500,54.000,1.000,2.000,5.000,0
"05/02/07","21:12:09",42520.000,"cc",28286.031,1,0.100,33878.000,0.200,7629.000,0.300,959.000,0.500,47.000,1.000,7.000,5.000,0
"05/02/07","21:12:15",42996.000,"cc",28336.807,1,0.100,34325.000,0.200,7666.000,0.300,945.000,0.500,51.000,1.000,9.000,5.000,0
"05/02/07","21:12:21",42902.000,"cc",28306.660,1,0.100,34092.000,0.200,7698.000,0.300,1055.000,0.500,48.000,1.000,9.000,5.000,0
"05/02/07","21:12:27",42549.000,"cc",28355.781,1,0.100,33931.000,0.200,7637.000,0.300,926.000,0.500,50.000,1.000,5.000,5.000,0
"05/02/07","21:12:33",42745.000,"cc",28283.082,1,0.100,33822.000,0.200,7933.000,0.300,939.000,0.500,43.000,1.000,8.000,5.000,0
"05/02/07","21:12:39",42464.000,"cc",28329.434,1,0.100,33991.000,0.200,7454.000,0.300,959.000,0.500,54.000,1.000,6.000,5.000,0
"05/02/07","21:12:45",43059.000,"cc",28295.016,1,0.100,34237.000,0.200,7815.000,0.300,951.000,0.500,49.000,1.000,7.000,5.000,0
"05/02/07","21:12:51",42763.000,"cc",28319.473,1,0.100,34034.000,0.200,7664.000,0.300,1007.000,0.500,54.000,1.000,4.000,5.000,0
"05/02/07","21:12:57",42298.000,"cc",28330.746,1,0.100,33392.000,0.200,7926.000,0.300,917.000,0.500,54.000,1.000,9.000,5.000,0
"05/02/07","21:13:03",41913.000,"cc",28312.832,1,0.100,33234.000,0.200,7657.000,0.300,957.000,0.500,50.000,1.000,14.000,5.000,1.000
"05/02/07","21:13:09",42451.000,"cc",28297.006,1,0.100,33702.000,0.200,7765.000,0.300,928.000,0.500,49.000,1.000,7.000,5.000,0
"05/02/07","21:13:15",42503.000,"cc",28322.477,1,0.100,33818.000,0.200,7656.000,0.300,950.000,0.500,63.000,1.000,15.000,5.000,1.000
"05/02/07","21:13:21",42241.000,"cc",28310.740,1,0.100,33637.000,0.200,7617.000,0.300,913.000,0.500,64.000,1.000,10.000,5.000,0
"05/02/07","21:13:27",42692.000,"cc",28305.098,1,0.100,34126.000,0.200,7542.000,0.300,948.000,0.500,67.000,1.000,9.000,5.000,0
"05/02/07","21:13:33",42519.000,"cc",28348.359,1,0.100,33896.000,0.200,7606.000,0.300,940.000,0.500,64.000,1.000,13.000,5.000,0
"05/02/07","21:13:39",42330.000,"cc",28336.041,1,0.100,33746.000,0.200,7568.000,0.300,941.000,0.500,59.000,1.000,16.000,5.000,0
"05/02/07","21:13:45",42593.000,"cc",28313.770,1,0.100,33829.000,0.200,7762.000,0.300,931.000,0.500,58.000,1.000,13.000,5.000,0
"05/02/07","21:13:51",42263.000,"cc",28249.682,1,0.100,33682.000,0.200,7608.000,0.300,900.000,0.500,59.000,1.000,14.000,5.000,0
"05/02/07","21:13:57",42760.000,"cc",28329.207,1,0.100,34083.000,0.200,7665.000,0.300,964.000,0.500,41.000,1.000,7.000,5.000,0
"05/02/07","21:14:03",42305.000,"cc",28288.900,1,0.100,33584.000,0.200,7688.000,0.300,975.000,0.500,48.000,1.000,10.000,5.000,0
"05/02/07","21:14:09",42470.000,"cc",28299.936,1,0.100,33654.000,0.200,7800.000,0.300,954.000,0.500,53.000,1.000,9.000,5.000,0
"05/02/07","21:14:15",42592.000,"cc",28362.469,1,0.100,33912.000,0.200,7649.000,0.300,968.000,0.500,57.000,1.000,6.000,5.000,0
"05/02/07","21:14:21",42368.000,"cc",28334.791,1,0.100,33693.000,0.200,7645.000,0.300,958.000,0.500,62.000,1.000,10.000,5.000,0
"05/02/07","21:14:27",42460.000,"cc",28367.475,1,0.100,33717.000,0.200,7768.000,0.300,913.000,0.500,55.000,1.000,7.000,5.000,0
"05/02/07","21:14:33",42829.000,"cc",28309.291,1,0.100,34072.000,0.200,7798.000,0.300,883.000,0.500,59.000,1.000,17.000,5.000,0
"05/02/07","21:14:39",42354.000,"cc",28343.621,1,0.100,33731.000,0.200,7632.000,0.300,927.000,0.500,50.000,1.000,14.000,5.000,0
"05/02/07","21:14:45",42033.000,"cc",28318.582,1,0.100,33403.000,0.200,7565.000,0.300,982.000,0.500,69.000,1.000,14.000,5.000,0
"05/02/07","21:14:51",42168.000,"cc",28316.150,1,0.100,33539.000,0.200,7610.000,0.300,926.000,0.500,79.000,1.000,14.000,5.000,0
"05/02/07","21:14:57",41870.000,"cc",28312.920,1,0.100,33110.000,0.200,7769.000,0.300,924.000,0.500,57.000,1.000,10.000,5.000,0
"05/02/07","21:15:03",42211.000,"cc",28305.172,1,0.100,33594.000,0.200,7582.000,0.300,970.000,0.500,52.000,1.000,13.000,5.000,0
"05/02/07","21:15:09",42030.000,"cc",28290.531,1,0.100,33462.000,0.200,7561.000,0.300,915.000,0.500,81.000,1.000,11.000,5.000,0
"05/02/07","21:15:15",42357.000,"cc",28319.961,1,0.100,33442.000,0.200,7934.000,0.300,890.000,0.500,76.000,1.000,15.000,5.000,0
"05/02/07","21:15:21",42825.000,"cc",28305.346,1,0.100,33861.000,0.200,7915.000,0.300,957.000,0.500,71.000,1.000,21.000,5.000,0
"05/02/07","21:15:27",42095.000,"cc",28409.008,1,0.100,33507.000,0.200,7525.000,0.300,987.000,0.500,66.000,1.000,10.000,5.000,0
"05/02/07","21:15:33",42139.000,"cc",28317.652,1,0.100,33354.000,0.200,7757.000,0.300,947.000,0.500,65.000,1.000,16.000,5.000,0
"05/02/07","21:15:39",42689.000,"cc",28237.078,1,0.100,33850.000,0.200,7785.000,0.300,968.000,0.500,72.000,1.000,14.000,5.000,0
"05/02/07","21:15:45",42926.000,"cc",28290.668,1,0.100,34071.000,0.200,7833.000,0.300,939.000,0.500,71.000,1.000,12.000,5.000,0
"05/02/07","21:15:51",42826.000,"cc",28330.359,1,0.100,34048.000,0.200,7715.000,0.300,982.000,0.500,71.000,1.000,10.000,5.000,0
"05/02/07","21:15:57",42815.000,"cc",28308.131,1,0.100,33974.000,0.200,7831.000,0.300,929.000,0.500,73.000,1.000,8.000,5.000,0
"05/02/07","21:16:03",42863.000,"cc",28323.490,1,0.100,34055.000,0.200,7750.000,0.300,984.000,0.500,69.000,1.000,5.000,5.000,0
"05/02/07","21:16:09",42947.000,"cc",28323.092,1,0.100,34024.000,0.200,7872.000,0.300,978.000,0.500,64.000,1.000,9.000,5.000,0
"05/02/07","21:16:15",43385.000,"cc",28324.285,1,0.100,34474.000,0.200,7818.000,0.300,1006.000,0.500,73.000,1.000,14.000,5.000,0
"05/02/07","21:16:21",43099.000,"cc",28303.096,1,0.100,34156.000,0.200,7913.000,0.300,969.000,0.500,55.000,1.000,6.000,5.000,0
"05/02/07","21:16:27",43170.000,"cc",28305.277,1,0.100,34266.000,0.200,7860.000,0.300,974.000,0.500,64.000,1.000,6.000,5.000,0
"05/02/07","21:16:33",43434.000,"cc",28257.762,1,0.100,34562.000,0.200,7840.000,0.300,957.000,0.500,66.000,1.000,9.000,5.000,0
"05/02/07","21:16:39",43639.000,"cc",28324.418,1,0.100,34645.000,0.200,7977.000,0.300,954.000,0.500,51.000,1.000,12.000,5.000,0
"05/02/07","21:16:45",43742.000,"cc",28315.201,1,0.100,34857.000,0.200,7894.000,0.300,934.000,0.500,55.000,1.000,2.000,5.000,0
"05/02/07","21:16:51",43202.000,"cc",28354.773,1,0.100,34359.000,0.200,7855.000,0.300,918.000,0.500,63.000,1.000,7.000,5.000,0
"05/02/07","21:16:57",43467.000,"cc",28335.572,1,0.100,34562.000,0.200,7884.000,0.300,969.000,0.500,47.000,1.000,5.000,5.000,0
"05/02/07","21:17:03",43678.000,"cc",28296.352,1,0.100,34627.000,0.200,8009.000,0.300,975.000,0.500,62.000,1.000,5.000,5.000,0
"05/02/07","21:17:09",43587.000,"cc",28295.717,1,0.100,34625.000,0.200,7906.000,0.300,984.000,0.500,62.000,1.000,10.000,5.000,0
"05/02/07","21:17:15",42749.000,"cc",28310.566,1,0.100,33973.000,0.200,7754.000,0.300,950.000,0.500,63.000,1.000,9.000,5.000,0
"05/02/07","21:17:21",42921.000,"cc",28340.795,1,0.100,33878.000,0.200,7982.000,0.300,976.000,0.500,67.000,1.000,18.000,5.000,0
"05/02/07","21:17:27",42819.000,"cc",28344.764,1,0.100,34036.000,0.200,7796.000,0.300,921.000,0.500,55.000,1.000,11.000,5.000,0
"05/02/07","21:17:33",42941.000,"cc",28321.248,1,0.100,34157.000,0.200,7814.000,0.300,895.000,0.500,65.000,1.000,10.000,5.000,0